E24CR-1 Weather Reports


Display with metric or nautical units.
time (UTC)temp
F
wind
direction
speed
MPH
gust
MPH
rain 1hr
in
rain 24hr
in
rain mn
in
humidity
%
barometer
mb
20260906083956 77 0 0.0 0.0 0.00 0.00 0.00 89 948.0
20260906082932 76 0 0.0 0.0 0.00 0.00 0.00 87 948.0
20260906081908 76 0 0.0 0.0 0.00 0.00 0.00 87 948.0
20260906080844 76 0 0.0 0.0 0.00 0.00 0.00 89 948.0
20260906075819 77 0 0.0 0.0 0.00 0.00 0.00 83 949.0
20260906074754 81 0 0.0 0.0 0.00 0.00 0.00 77 949.0
20260906073730 86 0 0.0 0.0 0.00 0.00 0.00 68 949.0
20260906072703 87 0 0.0 0.0 0.00 0.00 0.00 66 949.0
20260906071638 89 0 0.0 0.0 0.00 0.00 0.00 66 949.0
20260906070613 89 0 0.0 0.0 0.00 0.00 0.00 59 949.0
20260906065548 90 0 0.0 0.0 0.00 0.00 0.00 57 949.0
20260906064524 89 0 0.0 0.0 0.00 0.00 0.00 59 950.0
20260906063459 90 0 0.0 0.0 0.00 0.00 0.00 56 950.0
20260906062434 88 0 0.0 0.0 0.00 0.00 0.00 61 950.0
20260906061410 91 0 0.0 0.0 0.00 0.00 0.00 60 950.0
20260906060345 89 0 0.0 0.0 0.00 0.00 0.00 60 951.0
20260906055320 89 0 0.0 0.0 0.00 0.00 0.00 59 951.0
20260906054256 89 0 0.0 0.0 0.00 0.00 0.00 61 951.0
20260906053232 88 0 0.0 0.0 0.00 0.00 0.00 64 951.0
20260906052207 87 0 0.0 0.0 0.00 0.00 0.00 67 951.0
20260906051143 88 0 0.0 0.0 0.00 0.00 0.00 62 952.0
20260906050118 88 0 0.0 0.0 0.00 0.00 0.00 67 952.0
20260906045053 87 0 0.0 0.0 0.00 0.00 0.00 66 952.0
20260906044029 86 0 0.0 0.0 0.00 0.00 0.00 65 952.0
20260906043004 86 0 0.0 0.0 0.00 0.00 0.00 69 952.0
20260906041940 85 0 0.0 0.0 0.00 0.00 0.00 69 952.0
20260906040915 86 0 0.0 0.0 0.00 0.00 0.00 67 953.0
20260906035850 88 0 0.0 0.0 0.00 0.00 0.00 67 953.0
20260906034822 86 0 0.0 0.0 0.00 0.00 0.00 69 953.0
20260906034448 86 0 0.0 0.0 0.00 0.00 0.00 69 953.0
20260906033424 85 0 0.0 0.0 0.00 0.00 0.00 71 953.0
20260906032359 84 0 0.0 0.0 0.00 0.00 0.00 73 953.0
20260906031334 84 0 0.0 0.0 0.00 0.00 0.00 70 953.0
20260906030310 85 0 0.0 0.0 0.00 0.00 0.00 73 953.0
20260906025245 85 0 0.0 0.0 0.00 0.00 0.00 73 953.0
20260906024220 84 0 0.0 0.0 0.00 0.00 0.00 73 953.0
20260906023154 83 0 0.0 0.0 0.00 0.00 0.00 77 953.0
20260906022130 80 0 0.0 0.0 0.00 0.00 0.00 83 953.0
20260906021105 81 0 0.0 0.0 0.00 0.00 0.00 81 953.0
20260906020041 81 0 0.0 0.0 0.00 0.00 0.00 78 953.0
20260906015017 81 0 0.0 0.0 0.00 0.00 0.00 82 953.0
20260906013952 79 0 0.0 0.0 0.00 0.00 0.00 85 953.0
20260906012928 78 0 0.0 0.0 0.00 0.00 0.00 85 953.0
20260906011903 77 0 0.0 0.0 0.00 0.00 0.00 87 953.0
20260906010837 77 0 0.0 0.0 0.00 0.00 0.00 90 953.0
20260906005811 76 0 0.0 0.0 0.00 0.00 0.00 89 952.0
20260906004742 76 0 0.0 0.0 0.00 0.00 0.00 92 952.0
20260906003714 75 0 0.0 0.0 0.00 0.00 0.00 90 952.0
20260906002645 75 0 0.0 0.0 0.00 0.00 0.00 87 952.0
20260906001617 75 0 0.0 0.0 0.00 0.00 0.00 88 952.0
20260906000552 74 0 0.0 0.0 0.00 0.00 0.00 89 952.0
20260905235527 74 0 0.0 0.0 0.00 0.00 0.00 89 951.0
20260905234503 73 0 0.0 0.0 0.00 0.00 0.00 90 951.0
20260905233439 73 0 0.0 0.0 0.00 0.00 0.00 90 951.0
20260905232414 73 0 0.0 0.0 0.00 0.00 0.00 90 951.0
20260905231350 73 0 0.0 0.0 0.00 0.00 0.00 90 951.0
20260905230326 73 0 0.0 0.0 0.00 0.00 0.00 90 951.0
20260905225305 73 0 0.0 0.0 0.00 0.00 0.00 91 951.0
20260905224237 73 0 0.0 0.0 0.00 0.00 0.00 90 951.0
20260905223213 73 0 0.0 0.0 0.00 0.00 0.00 89 951.0
20260905222148 74 0 0.0 0.0 0.00 0.00 0.00 89 951.0
20260905221124 74 0 0.0 0.0 0.00 0.00 0.00 88 951.0
20260905220100 74 0 0.0 0.0 0.00 0.00 0.00 87 951.0
20260905215035 74 0 0.0 0.0 0.00 0.00 0.00 87 950.0
20260905214011 74 0 0.0 0.0 0.00 0.00 0.00 87 950.0
20260905212947 74 0 0.0 0.0 0.00 0.00 0.00 86 950.0
20260905211923 74 0 0.0 0.0 0.00 0.00 0.00 85 950.0
20260905210859 75 0 0.0 0.0 0.00 0.00 0.00 85 950.0
20260905205835 75 0 0.0 0.0 0.00 0.00 0.00 85 950.0
20260905204810 74 0 0.0 0.0 0.00 0.00 0.00 85 950.0
20260905203746 74 0 0.0 0.0 0.00 0.00 0.00 86 950.0
20260905202722 74 0 0.0 0.0 0.00 0.00 0.00 86 951.0
20260905201658 74 0 0.0 0.0 0.00 0.00 0.00 85 951.0
20260905200633 74 0 0.0 0.0 0.00 0.00 0.00 86 951.0
20260905195609 74 0 0.0 0.0 0.00 0.00 0.00 87 951.0
20260905194545 74 0 0.0 0.0 0.00 0.00 0.00 89 951.0
20260905193520 74 0 0.0 0.0 0.00 0.00 0.00 90 951.0
20260905192456 74 0 0.0 0.0 0.00 0.00 0.00 89 951.0
20260905191432 74 0 0.0 0.0 0.00 0.00 0.00 87 951.0
20260905190407 74 0 0.0 0.0 0.00 0.00 0.00 87 951.0
20260905185343 74 0 0.0 0.0 0.00 0.00 0.00 87 951.0
20260905184319 74 0 0.0 0.0 0.00 0.00 0.00 87 951.0
20260905183255 74 0 0.0 0.0 0.00 0.00 0.00 87 951.0
20260905182230 75 0 0.0 0.0 0.00 0.00 0.00 89 951.0
20260905180142 75 0 0.0 0.0 0.00 0.00 0.00 90 951.0
20260905175118 75 0 0.0 0.0 0.00 0.00 0.00 88 951.0
20260905174053 75 0 0.0 0.0 0.00 0.00 0.00 90 951.0
20260905173029 76 0 0.0 0.0 0.00 0.00 0.00 90 951.0
20260905172005 76 0 0.0 0.0 0.00 0.00 0.00 91 952.0
20260905170941 76 0 0.0 0.0 0.00 0.00 0.00 90 952.0
20260905165917 77 0 0.0 0.0 0.00 0.00 0.00 88 952.0
20260905164853 77 0 0.0 0.0 0.00 0.00 0.00 86 952.0
20260905163828 77 0 0.0 0.0 0.00 0.00 0.00 86 952.0
20260905162804 77 0 0.0 0.0 0.00 0.00 0.00 86 952.0
20260905161739 77 0 0.0 0.0 0.00 0.00 0.00 86 952.0
20260905160715 77 0 0.0 0.0 0.00 0.00 0.00 86 952.0
20260905155650 78 0 0.0 0.0 0.00 0.00 0.00 84 952.0
20260905154626 78 0 0.0 0.0 0.00 0.00 0.00 83 952.0
20260905153602 77 0 0.0 0.0 0.00 0.00 0.00 83 952.0
20260905152538 78 0 0.0 0.0 0.00 0.00 0.00 84 952.0
20260905151513 78 0 0.0 0.0 0.00 0.00 0.00 83 952.0
20260905150449 78 0 0.0 0.0 0.00 0.00 0.00 83 952.0
20260905145425 78 0 0.0 0.0 0.00 0.00 0.00 83 952.0
20260905144401 79 0 0.0 0.0 0.00 0.00 0.00 84 952.0
20260905143337 79 0 0.0 0.0 0.00 0.00 0.00 84 952.0
20260905142313 79 0 0.0 0.0 0.00 0.00 0.00 84 952.0
20260905141248 78 0 0.0 0.0 0.00 0.00 0.00 85 951.0
20260905140224 79 0 0.0 0.0 0.00 0.00 0.00 85 951.0
20260905135200 79 0 0.0 0.0 0.00 0.00 0.00 84 951.0
20260905134135 79 0 0.0 0.0 0.00 0.00 0.00 83 951.0
20260905133111 80 0 0.0 0.0 0.00 0.00 0.00 81 951.0
20260905132047 80 0 0.0 0.0 0.00 0.00 0.00 80 951.0
20260905131022 81 0 0.0 0.0 0.00 0.00 0.00 78 951.0
20260905125958 80 0 0.0 0.0 0.00 0.00 0.00 76 951.0
20260905124933 80 0 0.0 0.0 0.00 0.00 0.00 78 951.0
20260905123909 80 0 0.0 0.0 0.00 0.00 0.00 80 951.0
20260905122845 80 0 0.0 0.0 0.00 0.00 0.00 78 951.0
20260905121821 80 0 0.0 0.0 0.00 0.00 0.00 78 950.0
20260905120754 80 0 0.0 0.0 0.00 0.00 0.00 77 950.0
20260905115355 81 0 0.0 0.0 0.00 0.00 0.00 75 950.0
20260905114330 81 0 0.0 0.0 0.00 0.00 0.00 76 950.0
20260905113305 81 0 0.0 0.0 0.00 0.00 0.00 75 950.0
20260905112238 81 0 0.0 0.0 0.00 0.00 0.00 75 950.0
20260905111214 81 0 0.0 0.0 0.00 0.00 0.00 75 950.0
20260905110150 82 0 0.0 0.0 0.00 0.00 0.00 74 950.0
20260905105121 82 0 0.0 0.0 0.00 0.00 0.00 75 949.0
20260905104055 82 0 0.0 0.0 0.00 0.00 0.00 75 949.0
20260905102940 81 0 0.0 0.0 0.00 0.00 0.00 76 949.0
20260905100435 82 0 0.0 0.0 0.00 0.00 0.00 78 949.0
20260905095411 82 0 0.0 0.0 0.00 0.00 0.00 78 949.0
20260905094346 82 0 0.0 0.0 0.00 0.00 0.00 76 949.0
20260905093321 82 0 0.0 0.0 0.00 0.00 0.00 73 949.0
20260905092256 82 0 0.0 0.0 0.00 0.00 0.00 74 949.0
20260905091231 83 0 0.0 0.0 0.00 0.00 0.00 73 949.0
20260905090207 82 0 0.0 0.0 0.00 0.00 0.00 77 949.0
20260905085141 82 0 0.0 0.0 0.00 0.00 0.00 76 949.0